Year,Month,Day,Hour,Minute,Value (Times are PST for temperature in C)
2018,04,23,00,00,9.70
2018,04,23,00,01,9.80
2018,04,23,00,02,9.80
2018,04,23,00,03,9.80
2018,04,23,00,04,9.80
2018,04,23,00,05,9.70
2018,04,23,00,06,9.70
2018,04,23,00,07,9.70
2018,04,23,00,08,9.70
2018,04,23,00,09,9.70
2018,04,23,00,10,9.70
2018,04,23,00,11,9.60
2018,04,23,00,12,9.60
2018,04,23,00,13,9.70
2018,04,23,00,14,9.60
2018,04,23,00,15,9.60
2018,04,23,00,16,9.50
2018,04,23,00,17,9.50
2018,04,23,00,18,9.50
2018,04,23,00,19,9.50
2018,04,23,00,20,9.60
2018,04,23,00,21,9.70
2018,04,23,00,22,9.70
2018,04,23,00,23,9.70
2018,04,23,00,24,9.70
2018,04,23,00,25,9.60
2018,04,23,00,26,9.60
2018,04,23,00,27,9.50
2018,04,23,00,28,9.40
2018,04,23,00,29,9.30
2018,04,23,00,30,9.30
2018,04,23,00,31,9.20
2018,04,23,00,32,9.10
2018,04,23,00,33,9.10
2018,04,23,00,34,9.00
2018,04,23,00,35,9.00
2018,04,23,00,36,9.00
2018,04,23,00,37,9.00
2018,04,23,00,38,8.90
2018,04,23,00,39,8.90
2018,04,23,00,40,8.90
2018,04,23,00,41,8.80
2018,04,23,00,42,8.80
2018,04,23,00,43,8.70
2018,04,23,00,44,8.70
2018,04,23,00,45,8.70
2018,04,23,00,46,8.70
2018,04,23,00,47,8.40
2018,04,23,00,48,8.40
2018,04,23,00,49,8.30
2018,04,23,00,50,8.30
2018,04,23,00,51,8.20
2018,04,23,00,52,8.20
2018,04,23,00,53,8.20
2018,04,23,00,54,8.20
2018,04,23,00,55,8.10
2018,04,23,00,56,8.10
2018,04,23,00,57,8.10
2018,04,23,00,58,8.10
2018,04,23,00,59,8.20
2018,04,23,01,00,8.30
2018,04,23,01,01,8.40
2018,04,23,01,02,8.50
2018,04,23,01,03,8.50
2018,04,23,01,04,8.60
2018,04,23,01,05,8.60
2018,04,23,01,06,8.70
2018,04,23,01,07,8.60
2018,04,23,01,08,8.60
2018,04,23,01,09,8.50
2018,04,23,01,10,8.50
2018,04,23,01,11,8.50
2018,04,23,01,12,8.40
2018,04,23,01,13,8.40
2018,04,23,01,14,8.40
2018,04,23,01,15,8.30
2018,04,23,01,16,8.30
2018,04,23,01,17,8.30
2018,04,23,01,18,8.30
2018,04,23,01,19,8.30
2018,04,23,01,20,8.30
2018,04,23,01,21,8.20
2018,04,23,01,22,8.20
2018,04,23,01,23,8.10
2018,04,23,01,24,8.00
2018,04,23,01,25,8.00
2018,04,23,01,26,7.90
2018,04,23,01,27,7.80
2018,04,23,01,28,7.80
2018,04,23,01,29,7.80
2018,04,23,01,30,7.80
2018,04,23,01,31,7.80
2018,04,23,01,32,7.80
2018,04,23,01,33,7.90
2018,04,23,01,34,7.90
2018,04,23,01,35,7.90
2018,04,23,01,36,7.80
2018,04,23,01,37,7.80
2018,04,23,01,38,7.80
2018,04,23,01,39,7.70
2018,04,23,01,40,7.70
2018,04,23,01,41,7.70
2018,04,23,01,42,7.60
2018,04,23,01,43,7.60
2018,04,23,01,44,7.60
2018,04,23,01,45,7.50
2018,04,23,01,46,7.50
2018,04,23,01,47,7.60
2018,04,23,01,48,7.60
2018,04,23,01,49,7.60
2018,04,23,01,50,7.70
2018,04,23,01,51,7.70
2018,04,23,01,52,7.80
2018,04,23,01,53,7.80
2018,04,23,01,54,7.80
2018,04,23,01,55,7.80
2018,04,23,01,56,7.80
2018,04,23,01,57,7.70
2018,04,23,01,58,7.60
2018,04,23,01,59,7.50
2018,04,23,02,00,7.40
2018,04,23,02,01,7.30
2018,04,23,02,02,7.30
2018,04,23,02,03,7.20
2018,04,23,02,04,7.20
2018,04,23,02,05,7.20
2018,04,23,02,06,7.20
2018,04,23,02,07,7.20
2018,04,23,02,08,7.20
2018,04,23,02,09,7.20
2018,04,23,02,10,7.10
2018,04,23,02,11,7.10
2018,04,23,02,12,7.00
2018,04,23,02,13,6.90
2018,04,23,02,14,6.90
2018,04,23,02,15,6.80
2018,04,23,02,16,6.80
2018,04,23,02,17,6.80
2018,04,23,02,18,6.70
2018,04,23,02,19,6.70
2018,04,23,02,20,6.70
2018,04,23,02,21,6.70
2018,04,23,02,22,6.70
2018,04,23,02,23,6.70
2018,04,23,02,24,6.60
2018,04,23,02,25,6.60
2018,04,23,02,26,6.60
2018,04,23,02,27,6.60
2018,04,23,02,28,6.60
2018,04,23,02,29,6.60
2018,04,23,02,30,6.50
2018,04,23,02,31,6.50
2018,04,23,02,32,6.40
2018,04,23,02,33,6.40
2018,04,23,02,34,6.40
2018,04,23,02,35,6.40
2018,04,23,02,36,6.30
2018,04,23,02,37,6.30
2018,04,23,02,38,6.30
2018,04,23,02,39,6.30
2018,04,23,02,40,6.30
2018,04,23,02,41,6.30
2018,04,23,02,42,6.30
2018,04,23,02,43,6.30
2018,04,23,02,44,6.30
2018,04,23,02,45,6.30
2018,04,23,02,46,6.30
2018,04,23,02,47,6.30
2018,04,23,02,48,6.30
2018,04,23,02,49,6.30
2018,04,23,02,50,6.20
2018,04,23,02,51,6.20
2018,04,23,02,52,6.20
2018,04,23,02,53,6.20
2018,04,23,02,54,6.20
2018,04,23,02,55,6.10
2018,04,23,02,56,6.10
2018,04,23,02,57,6.00
2018,04,23,02,58,6.00
2018,04,23,02,59,5.90
2018,04,23,03,00,5.90
2018,04,23,03,01,5.90
2018,04,23,03,02,5.80
2018,04,23,03,03,5.80
2018,04,23,03,04,5.80
2018,04,23,03,05,5.70
2018,04,23,03,06,5.70
2018,04,23,03,07,5.70
2018,04,23,03,08,5.70
2018,04,23,03,09,5.60
2018,04,23,03,10,5.60
2018,04,23,03,11,5.60
2018,04,23,03,12,5.60
2018,04,23,03,13,5.60
2018,04,23,03,14,5.50
2018,04,23,03,15,5.50
2018,04,23,03,16,5.50
2018,04,23,03,17,5.50
2018,04,23,03,18,5.60
2018,04,23,03,19,5.60
2018,04,23,03,20,5.60
2018,04,23,03,21,5.60
2018,04,23,03,22,5.60
2018,04,23,03,23,5.60
2018,04,23,03,24,5.60
2018,04,23,03,25,5.60
2018,04,23,03,26,5.60
2018,04,23,03,27,5.60
2018,04,23,03,28,5.60
2018,04,23,03,29,5.60
2018,04,23,03,30,5.60
2018,04,23,03,31,5.60
2018,04,23,03,32,5.60
2018,04,23,03,33,5.60
2018,04,23,03,34,5.60
2018,04,23,03,35,5.60
2018,04,23,03,36,5.60
2018,04,23,03,37,5.60
2018,04,23,03,38,5.70
2018,04,23,03,39,5.70
2018,04,23,03,40,5.70
2018,04,23,03,41,5.70
2018,04,23,03,42,5.60
2018,04,23,03,43,5.60
2018,04,23,03,44,5.60
2018,04,23,03,45,5.60
2018,04,23,03,46,5.60
2018,04,23,03,47,5.60
2018,04,23,03,48,5.50
2018,04,23,03,49,5.50
2018,04,23,03,50,5.40
2018,04,23,03,51,5.40
2018,04,23,03,52,5.40
2018,04,23,03,53,5.40
2018,04,23,03,54,5.40
2018,04,23,03,55,5.40
2018,04,23,03,56,5.30
2018,04,23,03,57,5.30
2018,04,23,03,58,5.30
2018,04,23,03,59,5.30
2018,04,23,04,00,5.30
2018,04,23,04,01,5.30
2018,04,23,04,02,5.30
2018,04,23,04,03,5.30
2018,04,23,04,04,5.20
2018,04,23,04,05,5.20
2018,04,23,04,06,5.20
2018,04,23,04,07,5.20
2018,04,23,04,08,5.10
2018,04,23,04,09,5.10
2018,04,23,04,10,5.10
2018,04,23,04,11,5.10
2018,04,23,04,12,5.10
2018,04,23,04,13,5.10
2018,04,23,04,14,5.10
2018,04,23,04,15,5.10
2018,04,23,04,16,5.10
2018,04,23,04,17,5.10
2018,04,23,04,18,5.10
2018,04,23,04,19,5.00
2018,04,23,04,20,5.00
2018,04,23,04,21,5.00
2018,04,23,04,22,5.00
2018,04,23,04,23,5.00
2018,04,23,04,24,5.00
2018,04,23,04,25,5.00
2018,04,23,04,26,5.00
2018,04,23,04,27,5.00
2018,04,23,04,28,5.00
2018,04,23,04,29,5.00
2018,04,23,04,30,5.00
2018,04,23,04,31,5.00
2018,04,23,04,32,4.90
2018,04,23,04,33,4.90
2018,04,23,04,34,4.90
2018,04,23,04,35,4.90
2018,04,23,04,36,4.90
2018,04,23,04,37,4.80
2018,04,23,04,38,4.80
2018,04,23,04,39,4.80
2018,04,23,04,40,4.80
2018,04,23,04,41,4.80
2018,04,23,04,42,4.80
2018,04,23,04,43,4.80
2018,04,23,04,44,4.80
2018,04,23,04,45,4.70
2018,04,23,04,46,4.70
2018,04,23,04,47,4.70
2018,04,23,04,48,4.70
2018,04,23,04,49,4.70
2018,04,23,04,50,4.70
2018,04,23,04,51,4.70
2018,04,23,04,52,4.70
2018,04,23,04,53,4.70
2018,04,23,04,54,4.60
2018,04,23,04,55,4.60
2018,04,23,04,56,4.60
2018,04,23,04,57,4.60
2018,04,23,04,58,4.60
2018,04,23,04,59,4.60
2018,04,23,05,00,4.60
2018,04,23,05,01,4.60
2018,04,23,05,02,4.60
2018,04,23,05,03,4.60
2018,04,23,05,04,4.50
2018,04,23,05,05,4.50
2018,04,23,05,06,4.50
2018,04,23,05,07,4.40
2018,04,23,05,08,4.40
2018,04,23,05,09,4.40
2018,04,23,05,10,4.40
2018,04,23,05,11,4.40
2018,04,23,05,12,4.40
2018,04,23,05,13,4.40
2018,04,23,05,14,4.40
2018,04,23,05,15,4.40
2018,04,23,05,16,4.40
2018,04,23,05,17,4.40
2018,04,23,05,18,4.40
2018,04,23,05,19,4.30
2018,04,23,05,20,4.30
2018,04,23,05,21,4.30
2018,04,23,05,22,4.40
2018,04,23,05,23,4.30
2018,04,23,05,24,4.30
2018,04,23,05,25,4.30
2018,04,23,05,26,4.30
2018,04,23,05,27,4.30
2018,04,23,05,28,4.30
2018,04,23,05,29,4.30
2018,04,23,05,30,4.30
2018,04,23,05,31,4.30
2018,04,23,05,32,4.30
2018,04,23,05,33,4.30
2018,04,23,05,34,4.30
2018,04,23,05,35,4.30
2018,04,23,05,36,4.30
2018,04,23,05,37,4.30
2018,04,23,05,38,4.30
2018,04,23,05,39,4.30
2018,04,23,05,40,4.30
2018,04,23,05,41,4.20
2018,04,23,05,42,4.20
2018,04,23,05,43,4.20
2018,04,23,05,44,4.20
2018,04,23,05,45,4.20
2018,04,23,05,46,4.20
2018,04,23,05,47,4.20
2018,04,23,05,48,4.20
2018,04,23,05,49,4.20
2018,04,23,05,50,4.20
2018,04,23,05,51,4.20
2018,04,23,05,52,4.20
2018,04,23,05,53,4.20
2018,04,23,05,54,4.10
2018,04,23,05,55,4.10
2018,04,23,05,56,4.10
2018,04,23,05,57,4.10
2018,04,23,05,58,4.10
2018,04,23,05,59,4.10
2018,04,23,06,00,4.10
2018,04,23,06,01,4.10
2018,04,23,06,02,4.10
2018,04,23,06,03,4.10
2018,04,23,06,04,4.10
2018,04,23,06,05,4.10
2018,04,23,06,06,4.10
2018,04,23,06,07,4.10
2018,04,23,06,08,4.20
2018,04,23,06,09,4.20
2018,04,23,06,10,4.20
2018,04,23,06,11,4.20
2018,04,23,06,12,4.20
2018,04,23,06,13,4.10
2018,04,23,06,14,4.10
2018,04,23,06,15,4.10
2018,04,23,06,16,4.10
2018,04,23,06,17,4.10
2018,04,23,06,18,4.10
2018,04,23,06,19,4.10
2018,04,23,06,20,4.10
2018,04,23,06,21,4.10
2018,04,23,06,22,4.10
2018,04,23,06,23,4.10
2018,04,23,06,24,4.10
2018,04,23,06,25,4.10
2018,04,23,06,26,4.10
2018,04,23,06,27,4.00
2018,04,23,06,28,4.00
2018,04,23,06,29,4.00
2018,04,23,06,30,3.90
2018,04,23,06,31,4.00
2018,04,23,06,32,4.00
2018,04,23,06,33,4.00
2018,04,23,06,34,4.00
2018,04,23,06,35,4.00
2018,04,23,06,36,4.00
2018,04,23,06,37,4.00
2018,04,23,06,38,4.00
2018,04,23,06,39,4.00
2018,04,23,06,40,4.10
2018,04,23,06,41,4.10
2018,04,23,06,42,4.10
2018,04,23,06,43,4.10
2018,04,23,06,44,4.10
2018,04,23,06,45,4.10
2018,04,23,06,46,4.20
2018,04,23,06,47,4.20
2018,04,23,06,48,4.20
2018,04,23,06,49,4.20
2018,04,23,06,50,4.20
2018,04,23,06,51,4.20
2018,04,23,06,52,4.20
2018,04,23,06,53,4.30
2018,04,23,06,54,4.30
2018,04,23,06,55,4.30
2018,04,23,06,56,4.30
2018,04,23,06,57,4.40
2018,04,23,06,58,4.40
2018,04,23,06,59,4.40
2018,04,23,07,00,4.50
2018,04,23,07,01,4.50
2018,04,23,07,02,4.50
2018,04,23,07,03,4.60
2018,04,23,07,04,4.60
2018,04,23,07,05,4.60
2018,04,23,07,06,4.70
2018,04,23,07,07,4.70
2018,04,23,07,08,4.80
2018,04,23,07,09,4.80
2018,04,23,07,10,4.90
2018,04,23,07,11,5.00
2018,04,23,07,12,5.00
2018,04,23,07,13,5.10
2018,04,23,07,14,5.20
2018,04,23,07,15,5.30
2018,04,23,07,16,5.40
2018,04,23,07,17,5.50
2018,04,23,07,18,5.50
2018,04,23,07,19,5.60
2018,04,23,07,20,5.70
2018,04,23,07,21,5.70
2018,04,23,07,22,5.80
2018,04,23,07,23,5.90
2018,04,23,07,24,6.00
2018,04,23,07,25,6.00
2018,04,23,07,26,6.10
2018,04,23,07,27,6.10
2018,04,23,07,28,6.10
2018,04,23,07,29,6.20
2018,04,23,07,30,6.20
2018,04,23,07,31,6.20
2018,04,23,07,32,6.20
2018,04,23,07,33,6.30
2018,04,23,07,34,6.30
2018,04,23,07,35,6.30
2018,04,23,07,36,6.30
2018,04,23,07,37,6.40
2018,04,23,07,38,6.40
2018,04,23,07,39,6.50
2018,04,23,07,40,6.50
2018,04,23,07,41,6.60
2018,04,23,07,42,6.70
2018,04,23,07,43,6.80
2018,04,23,07,44,6.90
2018,04,23,07,45,7.00
2018,04,23,07,46,7.10
2018,04,23,07,47,7.20
2018,04,23,07,48,7.30
2018,04,23,07,49,7.30
2018,04,23,07,50,7.40
2018,04,23,07,51,7.50
2018,04,23,07,52,7.60
2018,04,23,07,53,7.60
2018,04,23,07,54,7.70
2018,04,23,07,55,7.80
2018,04,23,07,56,7.90
2018,04,23,07,57,7.90
2018,04,23,07,58,8.00
2018,04,23,07,59,8.10
2018,04,23,08,00,8.10
2018,04,23,08,01,8.20
2018,04,23,08,02,8.20
2018,04,23,08,03,8.20
2018,04,23,08,04,8.30
2018,04,23,08,05,8.30
2018,04,23,08,06,8.30
2018,04,23,08,07,8.30
2018,04,23,08,08,8.40
2018,04,23,08,09,8.40
2018,04,23,08,10,8.40
2018,04,23,08,11,8.40
2018,04,23,08,12,8.40
2018,04,23,08,13,8.50
2018,04,23,08,14,8.50
2018,04,23,08,15,8.60
2018,04,23,08,16,8.60
2018,04,23,08,17,8.60
2018,04,23,08,18,8.70
2018,04,23,08,19,8.70
2018,04,23,08,20,8.70
2018,04,23,08,21,8.80
2018,04,23,08,22,8.80
2018,04,23,08,23,8.90
2018,04,23,08,24,8.90
2018,04,23,08,25,8.90
2018,04,23,08,26,9.00
2018,04,23,08,27,9.10
2018,04,23,08,28,9.10
2018,04,23,08,29,9.20
2018,04,23,08,30,9.30
2018,04,23,08,31,9.40
2018,04,23,08,32,9.40
2018,04,23,08,33,9.40
2018,04,23,08,34,9.40
2018,04,23,08,35,9.40
2018,04,23,08,36,9.50
2018,04,23,08,37,9.50
2018,04,23,08,38,9.50
2018,04,23,08,39,9.60
2018,04,23,08,40,9.70
2018,04,23,08,41,9.70
2018,04,23,08,42,9.80
2018,04,23,08,43,9.80
2018,04,23,08,44,9.90
2018,04,23,08,45,9.90
2018,04,23,08,46,10.00
2018,04,23,08,47,10.10
2018,04,23,08,48,10.20
2018,04,23,08,49,10.30
2018,04,23,08,50,10.40
2018,04,23,08,51,10.50
2018,04,23,08,52,10.60
2018,04,23,08,53,10.70
2018,04,23,08,54,10.80
2018,04,23,08,55,10.80
2018,04,23,08,56,10.80
2018,04,23,08,57,10.90
2018,04,23,08,58,10.90
2018,04,23,08,59,10.90
2018,04,23,09,00,10.90
2018,04,23,09,01,11.00
2018,04,23,09,02,11.00
2018,04,23,09,03,11.10
2018,04,23,09,04,11.10
2018,04,23,09,05,11.10
2018,04,23,09,06,11.00
2018,04,23,09,07,11.00
2018,04,23,09,08,10.90
2018,04,23,09,09,10.90
2018,04,23,09,10,11.00
2018,04,23,09,11,10.90
2018,04,23,09,12,11.00
2018,04,23,09,13,11.00
2018,04,23,09,14,11.00
2018,04,23,09,15,11.00
2018,04,23,09,16,10.90
2018,04,23,09,17,10.90
2018,04,23,09,18,10.90
2018,04,23,09,19,10.90
2018,04,23,09,20,10.90
2018,04,23,09,21,10.90
2018,04,23,09,22,10.90
2018,04,23,09,23,11.00
2018,04,23,09,24,11.00
2018,04,23,09,25,11.00
2018,04,23,09,26,11.00
2018,04,23,09,27,10.90
2018,04,23,09,28,10.90
2018,04,23,09,29,10.90
2018,04,23,09,30,10.90
2018,04,23,09,31,10.90
2018,04,23,09,32,10.90
2018,04,23,09,33,11.00
2018,04,23,09,34,11.00
2018,04,23,09,35,11.00
2018,04,23,09,36,11.10
2018,04,23,09,37,11.10
2018,04,23,09,38,11.10
2018,04,23,09,39,11.10
2018,04,23,09,40,11.10
2018,04,23,09,41,11.10
2018,04,23,09,42,11.10
2018,04,23,09,43,11.20
2018,04,23,09,44,11.20
2018,04,23,09,45,11.20
2018,04,23,09,46,11.20
2018,04,23,09,47,11.20
2018,04,23,09,48,11.20
2018,04,23,09,49,11.20
2018,04,23,09,50,11.20
2018,04,23,09,51,11.20
2018,04,23,09,52,11.20
2018,04,23,09,53,11.30
2018,04,23,09,54,11.30
2018,04,23,09,55,11.30
2018,04,23,09,56,11.30
2018,04,23,09,57,11.30
2018,04,23,09,58,11.30
2018,04,23,09,59,11.30
2018,04,23,10,00,11.40
2018,04,23,10,01,11.40
2018,04,23,10,02,11.40
2018,04,23,10,03,11.50
2018,04,23,10,04,11.50
2018,04,23,10,05,11.50
2018,04,23,10,06,11.50
2018,04,23,10,07,11.60
2018,04,23,10,08,11.60
2018,04,23,10,09,11.60
2018,04,23,10,10,11.60
2018,04,23,10,11,11.60
2018,04,23,10,12,11.60
2018,04,23,10,13,11.70
2018,04,23,10,14,11.70
2018,04,23,10,15,11.80
2018,04,23,10,16,11.80
2018,04,23,10,17,11.90
2018,04,23,10,18,11.90
2018,04,23,10,19,11.90
2018,04,23,10,20,11.90
2018,04,23,10,21,12.00
2018,04,23,10,22,12.10
2018,04,23,10,23,12.10
2018,04,23,10,24,12.20
2018,04,23,10,25,12.20
2018,04,23,10,26,12.30
2018,04,23,10,27,12.40
2018,04,23,10,28,12.50
2018,04,23,10,29,12.60
2018,04,23,10,30,12.70
2018,04,23,10,31,12.70
2018,04,23,10,32,12.70
2018,04,23,10,33,12.80
2018,04,23,10,34,12.90
2018,04,23,10,35,12.90
2018,04,23,10,36,13.00
2018,04,23,10,37,13.10
2018,04,23,10,38,13.10
2018,04,23,10,39,13.20
2018,04,23,10,40,13.20
2018,04,23,10,41,13.10
2018,04,23,10,42,13.10
2018,04,23,10,43,13.10
2018,04,23,10,44,13.10
2018,04,23,10,45,13.10
2018,04,23,10,46,13.00
2018,04,23,10,47,12.90
2018,04,23,10,48,12.90
2018,04,23,10,49,12.90
2018,04,23,10,50,12.90
2018,04,23,10,51,12.90
2018,04,23,10,52,12.90
2018,04,23,10,53,12.90
2018,04,23,10,54,12.80
2018,04,23,10,55,12.80
2018,04,23,10,56,12.80
2018,04,23,10,57,12.80
2018,04,23,10,58,12.80
2018,04,23,10,59,12.90
2018,04,23,11,00,12.90
2018,04,23,11,01,13.00
2018,04,23,11,02,13.00
2018,04,23,11,03,13.10
2018,04,23,11,04,13.00
2018,04,23,11,05,13.00
2018,04,23,11,06,13.00
2018,04,23,11,07,12.90
2018,04,23,11,08,12.90
2018,04,23,11,09,13.00
2018,04,23,11,10,13.00
2018,04,23,11,11,13.10
2018,04,23,11,12,13.10
2018,04,23,11,13,13.20
2018,04,23,11,14,13.20
2018,04,23,11,15,13.30
2018,04,23,11,16,13.30
2018,04,23,11,17,13.30
2018,04,23,11,18,13.30
2018,04,23,11,19,13.20
2018,04,23,11,20,13.20
2018,04,23,11,21,13.20
2018,04,23,11,22,13.20
2018,04,23,11,23,13.20
2018,04,23,11,24,13.20
2018,04,23,11,25,13.30
2018,04,23,11,26,13.30
2018,04,23,11,27,13.30
2018,04,23,11,28,13.30
2018,04,23,11,29,13.30
2018,04,23,11,30,13.30
2018,04,23,11,31,13.30
2018,04,23,11,32,13.30
2018,04,23,11,33,13.30
2018,04,23,11,34,13.40
2018,04,23,11,35,13.40
2018,04,23,11,36,13.50
2018,04,23,11,37,13.50
2018,04,23,11,38,13.50
2018,04,23,11,39,13.60
2018,04,23,11,40,13.60
2018,04,23,11,41,13.60
2018,04,23,11,42,13.60
2018,04,23,11,43,13.60
2018,04,23,11,44,13.70
2018,04,23,11,45,13.70
2018,04,23,11,46,13.60
2018,04,23,11,47,13.60
2018,04,23,11,48,13.50
2018,04,23,11,49,13.50
2018,04,23,11,50,13.50
2018,04,23,11,51,13.60
2018,04,23,11,52,13.60
2018,04,23,11,53,13.70
2018,04,23,11,54,13.80
2018,04,23,11,55,13.80
2018,04,23,11,56,13.80
2018,04,23,11,57,13.70
2018,04,23,11,58,13.70
2018,04,23,11,59,13.70
2018,04,23,12,00,13.70
2018,04,23,12,01,13.80
2018,04,23,12,02,13.80
2018,04,23,12,03,13.80
2018,04,23,12,04,13.90
2018,04,23,12,05,13.90
2018,04,23,12,06,14.00
2018,04,23,12,07,14.10
2018,04,23,12,08,14.20
2018,04,23,12,09,14.30
2018,04,23,12,10,14.40
2018,04,23,12,11,14.50
2018,04,23,12,12,14.60
2018,04,23,12,13,14.60
2018,04,23,12,14,14.60
2018,04,23,12,15,14.50
2018,04,23,12,16,14.50
2018,04,23,12,17,14.50
2018,04,23,12,18,14.50
2018,04,23,12,19,14.50
2018,04,23,12,20,14.50
2018,04,23,12,21,14.50
2018,04,23,12,22,14.50
2018,04,23,12,23,14.60
2018,04,23,12,24,14.70
2018,04,23,12,25,14.80
2018,04,23,12,26,14.90
2018,04,23,12,27,15.00
2018,04,23,12,28,15.10
2018,04,23,12,29,15.20
2018,04,23,12,30,15.30
2018,04,23,12,31,15.40
2018,04,23,12,32,15.40
2018,04,23,12,33,15.50
2018,04,23,12,34,15.50
2018,04,23,12,35,15.60
2018,04,23,12,36,15.60
2018,04,23,12,37,15.70
2018,04,23,12,38,15.70
2018,04,23,12,39,15.70
2018,04,23,12,40,15.60
2018,04,23,12,41,15.60
2018,04,23,12,42,15.60
2018,04,23,12,43,15.60
2018,04,23,12,44,15.50
2018,04,23,12,45,15.60
2018,04,23,12,46,15.60
2018,04,23,12,47,15.70
2018,04,23,12,48,15.80
2018,04,23,12,49,15.90
2018,04,23,12,50,16.00
2018,04,23,12,51,16.10
2018,04,23,12,52,16.20
2018,04,23,12,53,16.20
2018,04,23,12,54,16.20
2018,04,23,12,55,16.10
2018,04,23,12,56,15.90
2018,04,23,12,57,15.90
2018,04,23,12,58,15.80
2018,04,23,12,59,15.80
2018,04,23,13,00,15.80
2018,04,23,13,01,15.80
2018,04,23,13,02,15.80
2018,04,23,13,03,15.70
2018,04,23,13,04,15.70
2018,04,23,13,05,15.70
2018,04,23,13,06,15.80
2018,04,23,13,07,15.80
2018,04,23,13,08,15.80
2018,04,23,13,09,15.90
2018,04,23,13,10,16.00
2018,04,23,13,11,16.10
2018,04,23,13,12,16.20
2018,04,23,13,13,16.20
2018,04,23,13,14,16.30
2018,04,23,13,15,16.30
2018,04,23,13,16,16.40
2018,04,23,13,17,16.40
2018,04,23,13,18,16.40
2018,04,23,13,19,16.50
2018,04,23,13,20,16.50
2018,04,23,13,21,16.50
2018,04,23,13,22,16.50
2018,04,23,13,23,16.50
2018,04,23,13,24,16.40
2018,04,23,13,25,16.40
2018,04,23,13,26,16.40
2018,04,23,13,27,16.40
2018,04,23,13,28,16.40
2018,04,23,13,29,16.50
2018,04,23,13,30,16.50
2018,04,23,13,31,16.40
2018,04,23,13,32,16.50
2018,04,23,13,33,16.50
2018,04,23,13,34,16.50
2018,04,23,13,35,16.40
2018,04,23,13,36,16.40
2018,04,23,13,37,16.30
2018,04,23,13,38,16.30
2018,04,23,13,39,16.20
2018,04,23,13,40,16.20
2018,04,23,13,41,16.10
2018,04,23,13,42,16.10
2018,04,23,13,43,16.00
2018,04,23,13,44,16.00
2018,04,23,13,45,15.90
2018,04,23,13,46,15.90
2018,04,23,13,47,15.90
2018,04,23,13,48,15.90
2018,04,23,13,49,16.00
2018,04,23,13,50,16.00
2018,04,23,13,51,16.10
2018,04,23,13,52,16.20
2018,04,23,13,53,16.20
2018,04,23,13,54,16.10
2018,04,23,13,55,16.10
2018,04,23,13,56,16.10
2018,04,23,13,57,16.10
2018,04,23,13,58,16.10
2018,04,23,13,59,16.10
2018,04,23,14,00,16.10
2018,04,23,14,01,16.10
2018,04,23,14,02,16.10
2018,04,23,14,03,16.00
2018,04,23,14,04,15.90
2018,04,23,14,05,15.80
2018,04,23,14,06,15.60
2018,04,23,14,07,15.60
2018,04,23,14,08,15.60
2018,04,23,14,09,15.60
2018,04,23,14,10,15.70
2018,04,23,14,11,15.70
2018,04,23,14,12,15.80
2018,04,23,14,13,15.90
2018,04,23,14,14,16.00
2018,04,23,14,15,16.00
2018,04,23,14,16,16.00
2018,04,23,14,17,15.90
2018,04,23,14,18,15.80
2018,04,23,14,19,15.80
2018,04,23,14,20,15.80
2018,04,23,14,21,15.90
2018,04,23,14,22,15.90
2018,04,23,14,23,15.90
2018,04,23,14,24,15.90
2018,04,23,14,25,15.90
2018,04,23,14,26,15.90
2018,04,23,14,27,15.80
2018,04,23,14,28,15.70
2018,04,23,14,29,15.60
2018,04,23,14,30,15.40
2018,04,23,14,31,15.40
2018,04,23,14,32,15.30
2018,04,23,14,33,15.20
2018,04,23,14,34,15.20
2018,04,23,14,35,15.30
2018,04,23,14,36,15.30
2018,04,23,14,37,15.30
2018,04,23,14,38,15.30
2018,04,23,14,39,15.40
2018,04,23,14,40,15.40
2018,04,23,14,41,15.40
2018,04,23,14,42,15.50
2018,04,23,14,43,15.60
2018,04,23,14,44,15.60
2018,04,23,14,45,15.80
2018,04,23,14,46,15.90
2018,04,23,14,47,16.00
2018,04,23,14,48,16.10
2018,04,23,14,49,16.20
2018,04,23,14,50,16.20
2018,04,23,14,51,16.30
2018,04,23,14,52,16.40
2018,04,23,14,53,16.40
2018,04,23,14,54,16.50
2018,04,23,14,55,16.50
2018,04,23,14,56,16.60
2018,04,23,14,57,16.60
2018,04,23,14,58,16.70
2018,04,23,14,59,16.70
2018,04,23,15,00,16.80
2018,04,23,15,01,16.80
2018,04,23,15,02,16.90
2018,04,23,15,03,17.00
2018,04,23,15,04,17.10
2018,04,23,15,05,17.10
2018,04,23,15,06,17.20
2018,04,23,15,07,17.20
2018,04,23,15,08,17.30
2018,04,23,15,09,17.30
2018,04,23,15,10,17.30
2018,04,23,15,11,17.30
2018,04,23,15,12,17.30
2018,04,23,15,13,17.40
2018,04,23,15,14,17.40
2018,04,23,15,15,17.40
2018,04,23,15,16,17.40
2018,04,23,15,17,17.40
2018,04,23,15,18,17.30
2018,04,23,15,19,17.30
2018,04,23,15,20,17.30
2018,04,23,15,21,17.30
2018,04,23,15,22,17.30
2018,04,23,15,23,17.20
2018,04,23,15,24,17.30
2018,04,23,15,25,17.30
2018,04,23,15,26,17.40
2018,04,23,15,27,17.40
2018,04,23,15,28,17.50
2018,04,23,15,29,17.40
2018,04,23,15,30,17.40
2018,04,23,15,31,17.40
2018,04,23,15,32,17.50
2018,04,23,15,33,17.50
2018,04,23,15,34,17.60
2018,04,23,15,35,17.70
2018,04,23,15,36,17.80
2018,04,23,15,37,17.90
2018,04,23,15,38,18.10
2018,04,23,15,39,18.10
2018,04,23,15,40,18.20
2018,04,23,15,41,18.20
2018,04,23,15,42,18.30
2018,04,23,15,43,18.40
2018,04,23,15,44,18.40
2018,04,23,15,45,18.40
2018,04,23,15,46,18.40
2018,04,23,15,47,18.30
2018,04,23,15,48,18.30
2018,04,23,15,49,18.30
2018,04,23,15,50,18.30
2018,04,23,15,51,18.30
2018,04,23,15,52,18.20
2018,04,23,15,53,18.10
2018,04,23,15,54,18.10
2018,04,23,15,55,18.00
2018,04,23,15,56,18.00
2018,04,23,15,57,18.00
2018,04,23,15,58,18.00
2018,04,23,15,59,18.10
2018,04,23,16,00,18.20
2018,04,23,16,01,18.30
2018,04,23,16,02,18.40
2018,04,23,16,03,18.50
2018,04,23,16,04,18.50
2018,04,23,16,05,18.60
2018,04,23,16,06,18.60
2018,04,23,16,07,18.60
2018,04,23,16,08,18.60
2018,04,23,16,09,18.50
2018,04,23,16,10,18.40
2018,04,23,16,11,18.40
2018,04,23,16,12,18.30
2018,04,23,16,13,18.30
2018,04,23,16,14,18.20
2018,04,23,16,15,18.20
2018,04,23,16,16,18.10
2018,04,23,16,17,18.10
2018,04,23,16,18,18.00
2018,04,23,16,19,17.90
2018,04,23,16,20,17.90
2018,04,23,16,21,17.80
2018,04,23,16,22,17.80
2018,04,23,16,23,17.70
2018,04,23,16,24,17.70
2018,04,23,16,25,17.70
2018,04,23,16,26,17.70
2018,04,23,16,27,17.60
2018,04,23,16,28,17.60
2018,04,23,16,29,17.60
2018,04,23,16,30,17.60
2018,04,23,16,31,17.50
2018,04,23,16,32,17.50
2018,04,23,16,33,17.40
2018,04,23,16,34,17.40
2018,04,23,16,35,17.30
2018,04,23,16,36,17.20
2018,04,23,16,37,17.20
2018,04,23,16,38,17.20
2018,04,23,16,39,17.20
2018,04,23,16,40,17.20
2018,04,23,16,41,17.20
2018,04,23,16,42,17.20
2018,04,23,16,43,17.20
2018,04,23,16,44,17.20
2018,04,23,16,45,17.30
2018,04,23,16,46,17.30
2018,04,23,16,47,17.30
2018,04,23,16,48,17.40
2018,04,23,16,49,17.40
2018,04,23,16,50,17.40
2018,04,23,16,51,17.50
2018,04,23,16,52,17.60
2018,04,23,16,53,17.80
2018,04,23,16,54,17.90
2018,04,23,16,55,17.90
2018,04,23,16,56,17.90
2018,04,23,16,57,18.00
2018,04,23,16,58,18.00
2018,04,23,16,59,18.00
2018,04,23,17,00,18.10
2018,04,23,17,01,18.10
2018,04,23,17,02,18.10
2018,04,23,17,03,18.10
2018,04,23,17,04,18.20
2018,04,23,17,05,18.30
2018,04,23,17,06,18.40
2018,04,23,17,07,18.50
2018,04,23,17,08,18.60
2018,04,23,17,09,18.70
2018,04,23,17,10,18.70
2018,04,23,17,11,18.70
2018,04,23,17,12,18.70
2018,04,23,17,13,18.70
2018,04,23,17,14,18.70
2018,04,23,17,15,18.70
2018,04,23,17,16,18.80
2018,04,23,17,17,18.80
2018,04,23,17,18,18.90
2018,04,23,17,19,19.00
2018,04,23,17,20,19.00
2018,04,23,17,21,19.00
2018,04,23,17,22,19.00
2018,04,23,17,23,19.00
2018,04,23,17,24,18.90
2018,04,23,17,25,18.80
2018,04,23,17,26,18.80
2018,04,23,17,27,18.80
2018,04,23,17,28,18.80
2018,04,23,17,29,18.80
2018,04,23,17,30,18.80
2018,04,23,17,31,18.80
2018,04,23,17,32,18.70
2018,04,23,17,33,18.70
2018,04,23,17,34,18.70
2018,04,23,17,35,18.70
2018,04,23,17,36,18.60
2018,04,23,17,37,18.60
2018,04,23,17,38,18.60
2018,04,23,17,39,18.50
2018,04,23,17,40,18.50
2018,04,23,17,41,18.40
2018,04,23,17,42,18.40